[Date Prev][Date Next][Thread Prev][Thread Next] - [Date Index][Thread Index][Author Index]

2 Line ISS Keps 2-25



ISS
1 25544U 98067A   03056.16832176  .00014829  00000-0  19439-3 0  7258
2 25544  51.6342 222.8608 0012010 243.3158  90.5399 15.58733587243524


----
Via the sarex mailing list at AMSAT.ORG courtesy of AMSAT-NA.
To unsubscribe, send "unsubscribe sarex" to Majordomo@amsat.org



AMSAT Top AMSAT Home